Total_Precipitation_Accumulation
0.42 0.64 0.96 1.26 1.58 1.95 2.42 2.61 2.56 2.12 1.67 1.49 1.30 1.18 1.03 0.93 0.89 0.81 0.70 0.60 0.49 0.47 0.53 0.44 0.38 0.41 0.44 0.41 0.56 0.67 0.68 0.51 0.71 0.79 0.37 0.17 0.10 0.10 0.08 0.07 0.07 0.07 0.10
0.63 1.01 1.44 1.65 1.62 1.87 2.35 2.41 1.96 1.50 1.22 1.08 0.96 0.83 0.79 0.73 0.66 0.57 0.48 0.43 0.41 0.41 0.43 0.37 0.30 0.31 0.35 0.35 0.39 0.48 0.52 0.44 0.70 0.79 0.64 0.33 0.16 0.10 0.06 0.09 0.10 0.12 0.14
0.82 1.15 1.49 1.58 1.48 1.68 1.73 1.44 1.15 0.89 0.70 0.60 0.55 0.56 0.53 0.50 0.42 0.35 0.31 0.32 0.35 0.33 0.30 0.26 0.25 0.28 0.29 0.31 0.36 0.47 0.58 0.49 0.54 0.74 0.84 0.58 0.29 0.24 0.17 0.19 0.24 0.26 0.31
0.52 0.75 0.94 1.06 1.14 1.15 1.00 0.81 0.70 0.58 0.53 0.52 0.45 0.51 0.45 0.39 0.34 0.28 0.27 0.29 0.30 0.27 0.24 0.24 0.31 0.34 0.37 0.41 0.40 0.44 0.52 0.54 0.47 0.54 0.68 0.71 0.67 0.55 0.30 0.21 0.23 0.30 0.34
0.29 0.41 0.46 0.53 0.60 0.61 0.56 0.46 0.53 0.59 0.54 0.50 0.44 0.40 0.34 0.29 0.26 0.28 0.30 0.33 0.33 0.30 0.27 0.23 0.25 0.31 0.37 0.39 0.39 0.39 0.45 0.50 0.49 0.47 0.51 0.61 0.71 0.68 0.52 0.29 0.21 0.28 0.31
0.26 0.30 0.28 0.25 0.25 0.26 0.25 0.25 0.32 0.39 0.39 0.39 0.38 0.35 0.32 0.30 0.27 0.27 0.28 0.29 0.31 0.32 0.30 0.27 0.27 0.27 0.27 0.28 0.31 0.33 0.35 0.38 0.41 0.44 0.47 0.51 0.54 0.58 0.66 0.52 0.40 0.36 0.37
0.18 0.21 0.21 0.18 0.15 0.14 0.13 0.12 0.14 0.22 0.25 0.27 0.31 0.30 0.30 0.29 0.28 0.25 0.24 0.25 0.25 0.28 0.30 0.30 0.33 0.36 0.35 0.32 0.32 0.34 0.34 0.38 0.40 0.41 0.44 0.48 0.51 0.59 0.68 0.64 0.52 0.49 0.56
0.09 0.11 0.11 0.10 0.09 0.08 0.07 0.06 0.06 0.07 0.09 0.12 0.17 0.18 0.22 0.23 0.24 0.31 0.29 0.25 0.24 0.27 0.32 0.36 0.37 0.37 0.41 0.42 0.45 0.47 0.47 0.45 0.44 0.40 0.48 0.52 0.51 0.60 0.66 0.69 0.69 0.62 0.68
0.05 0.05 0.05 0.05 0.04 0.04 0.04 0.04 0.04 0.04 0.05 0.05 0.07 0.10 0.13 0.17 0.24 0.30 0.28 0.24 0.24 0.22 0.23 0.30 0.40 0.40 0.40 0.45 0.51 0.52 0.53 0.54 0.55 0.55 0.58 0.60 0.58 0.58 0.62 0.70 0.74 0.72 0.70
0.03 0.03 0.03 0.03 0.03 0.02 0.02 0.02 0.03 0.03 0.03 0.03 0.03 0.05 0.10 0.18 0.25 0.29 0.26 0.22 0.21 0.19 0.19 0.23 0.30 0.33 0.35 0.42 0.52 0.57 0.60 0.65 0.68 0.63 0.61 0.66 0.66 0.63 0.65 0.68 0.72 0.77 0.81
0.01 0.01 0.01 0.01 0.01 0.01 0.01 0.02 0.02 0.02 0.02 0.02 0.03 0.07 0.16 0.20 0.27 0.42 0.40 0.24 0.18 0.16 0.15 0.16 0.17 0.18 0.21 0.28 0.42 0.61 0.69 0.75 0.74 0.70 0.70 0.68 0.68 0.64 0.58 0.61 0.65 0.71 0.76
0.00 0.00 0.00 0.01 0.01 0.01 0.01 0.01 0.01 0.02 0.02 0.02 0.02 0.05 0.14 0.19 0.23 0.30 0.33 0.25 0.19 0.16 0.14 0.12 0.11 0.11 0.13 0.21 0.36 0.52 0.65 0.76 0.83 0.78 0.73 0.61 0.54 0.53 0.51 0.55 0.58 0.59 0.63
0.00 0.00 0.00 0.00 0.01 0.01 0.01 0.01 0.01 0.01 0.01 0.02 0.02 0.04 0.06 0.07 0.08 0.10 0.14 0.19 0.21 0.21 0.18 0.15 0.14 0.18 0.24 0.31 0.40 0.46 0.57 0.70 0.74 0.71 0.61 0.51 0.48 0.47 0.47 0.46 0.47 0.46 0.45
0.00 0.00 0.00 0.00 0.00 0.00 0.00 0.01 0.01 0.01 0.01 0.02 0.03 0.03 0.03 0.03 0.03 0.06 0.10 0.16 0.18 0.19 0.17 0.17 0.20 0.26 0.33 0.37 0.37 0.39 0.45 0.50 0.55 0.56 0.49 0.41 0.37 0.36 0.36 0.35 0.32 0.31 0.30
0.01 0.01 0.01 0.01 0.01 0.01 0.01 0.01 0.01 0.01 0.02 0.04 0.08 0.08 0.06 0.05 0.04 0.06 0.08 0.10 0.10 0.10 0.13 0.17 0.21 0.26 0.30 0.30 0.33 0.35 0.33 0.37 0.37 0.34 0.34 0.30 0.27 0.27 0.27 0.24 0.20 0.19 0.20
0.02 0.02 0.02 0.02 0.01 0.01 0.01 0.01 0.01 0.01 0.04 0.07 0.12 0.16 0.12 0.06 0.04 0.04 0.04 0.05 0.05 0.06 0.10 0.13 0.16 0.18 0.19 0.23 0.24 0.22 0.20 0.21 0.24 0.25 0.23 0.19 0.20 0.19 0.19 0.18 0.15 0.14 0.14
0.03 0.02 0.01 0.01 0.01 0.01 0.01 0.02 0.02 0.02 0.08 0.12 0.10 0.17 0.17 0.07 0.03 0.03 0.04 0.06 0.05 0.07 0.10 0.12 0.13 0.14 0.16 0.12 0.09 0.08 0.11 0.15 0.20 0.22 0.22 0.18 0.14 0.13 0.13 0.11 0.09 0.09 0.10
0.01 0.00 0.00 0.00 0.00 0.00 0.00 0.02 0.04 0.04 0.11 0.14 0.11 0.16 0.18 0.09 0.08 0.08 0.09 0.08 0.08 0.10 0.13 0.14 0.13 0.15 0.16 0.11 0.07 0.05 0.07 0.12 0.17 0.19 0.19 0.17 0.14 0.13 0.11 0.09 0.07 0.06 0.07
0.00 0.00 0.00 0.00 0.00 0.01 0.01 0.02 0.07 0.10 0.11 0.13 0.12 0.17 0.23 0.17 0.16 0.16 0.18 0.18 0.19 0.20 0.19 0.18 0.17 0.18 0.19 0.13 0.09 0.07 0.10 0.14 0.17 0.19 0.19 0.17 0.13 0.11 0.10 0.10 0.08 0.06 0.07
0.00 0.00 0.00 0.00 0.01 0.01 0.03 0.04 0.06 0.11 0.13 0.13 0.15 0.20 0.31 0.33 0.29 0.27 0.27 0.26 0.31 0.33 0.31 0.27 0.22 0.22 0.24 0.20 0.13 0.11 0.14 0.19 0.21 0.23 0.22 0.20 0.16 0.12 0.09 0.10 0.08 0.06 0.05
0.00 0.01 0.01 0.01 0.02 0.03 0.06 0.10 0.11 0.13 0.15 0.18 0.21 0.26 0.36 0.47 0.45 0.42 0.38 0.36 0.37 0.42 0.46 0.46 0.39 0.33 0.32 0.29 0.19 0.15 0.20 0.24 0.25 0.25 0.25 0.22 0.20 0.15 0.11 0.10 0.11 0.07 0.05
0.01 0.02 0.03 0.04 0.05 0.08 0.14 0.20 0.20 0.20 0.23 0.25 0.28 0.33 0.43 0.46 0.49 0.51 0.53 0.56 0.55 0.57 0.60 0.62 0.57 0.51 0.46 0.37 0.26 0.19 0.21 0.27 0.31 0.32 0.30 0.29 0.28 0.22 0.17 0.12 0.10 0.08 0.06
0.02 0.03 0.05 0.08 0.11 0.15 0.25 0.32 0.33 0.35 0.35 0.34 0.34 0.38 0.45 0.54 0.64 0.65 0.62 0.65 0.69 0.71 0.75 0.76 0.70 0.66 0.66 0.55 0.37 0.28 0.26 0.31 0.38 0.42 0.44 0.41 0.37 0.32 0.25 0.20 0.15 0.10 0.07
0.03 0.04 0.07 0.12 0.16 0.24 0.35 0.43 0.46 0.47 0.46 0.41 0.38 0.42 0.49 0.56 0.66 0.78 0.79 0.81 0.81 0.83 0.89 0.88 0.79 0.77 0.82 0.74 0.52 0.40 0.36 0.37 0.43 0.47 0.49 0.49 0.48 0.43 0.36 0.29 0.21 0.13 0.08
0.04 0.06 0.10 0.16 0.19 0.29 0.43 0.50 0.53 0.56 0.54 0.48 0.42 0.43 0.48 0.53 0.60 0.71 0.79 0.84 0.85 0.84 0.87 0.88 0.80 0.78 0.87 0.83 0.65 0.52 0.48 0.47 0.48 0.49 0.51 0.54 0.55 0.51 0.44 0.35 0.25 0.17 0.11
0.07 0.11 0.15 0.21 0.24 0.30 0.40 0.49 0.62 0.73 0.74 0.64 0.55 0.49 0.47 0.50 0.56 0.63 0.64 0.60 0.65 0.65 0.65 0.68 0.62 0.60 0.78 0.85 0.69 0.56 0.56 0.55 0.53 0.52 0.51 0.51 0.52 0.50 0.41 0.35 0.27 0.20 0.12